This is the latest recevied weather packets stored in our database for station/object JH7UAX-10. If no packets are shown the sender has not sent any weather packets the latest 10 day(s).
| Time | Temp. | Humidity | Pressure | Rain* | Wind** | Luminosity | Snow |
|---|---|---|---|---|---|---|---|
| 1787840054 | 21.11° C | 96% | 1017.3 hPa | 0 mm | - | - | - |
| 1787839156 | 21.11° C | 95% | 1017.4 hPa | 0 mm | - | - | - |
| 1787837354 | 21.67° C | 95% | 1017.4 hPa | 4.06 mm | - | - | - |
| 1787836454 | 21.67° C | 95% | 1017.4 hPa | 4.06 mm | - | - | - |
| 1787835562 | 21.67° C | 94% | 1017 hPa | 4.06 mm | - | - | - |
| 1787834654 | 21.67° C | 93% | 1017.1 hPa | 4.06 mm | - | - | - |
| 1787832854 | 21.67° C | 93% | 1016.9 hPa | 0 mm | - | - | - |
| 1787831959 | 21.67° C | 93% | 1016.9 hPa | 0 mm | - | - | - |
| 1787831055 | 21.67° C | 93% | 1016.9 hPa | 0 mm | - | - | - |
| 1787830154 | 21.67° C | 94% | 1016.9 hPa | 0 mm | - | - | - |
| 1787829256 | 21.67° C | 94% | 1017.1 hPa | 0 mm | - | - | - |
| 1787828355 | 22.22° C | 95% | 1017.4 hPa | 0 mm | - | - | - |
| 1787827454 | 22.22° C | 95% | 1017.5 hPa | 0 mm | - | - | - |
| 1787826554 | 22.22° C | 95% | 1017.1 hPa | 0 mm | - | - | - |
| 1787825655 | 22.78° C | 95% | 1016.8 hPa | 0 mm | - | - | - |
| 1787824754 | 22.78° C | 95% | 1016.6 hPa | 0 mm | - | - | - |
| 1787823854 | 22.78° C | 95% | 1016.8 hPa | 0 mm | - | - | - |
| 1787822055 | 22.78° C | 95% | 1016.6 hPa | 1.02 mm | - | - | - |
| 1787821156 | 22.78° C | 95% | 1016.8 hPa | 3.3 mm | - | - | - |
| 1787820252 | 23.33° C | 94% | 1016.5 hPa | 3.56 mm | - | - | - |
| 1787818454 | 23.89° C | 91% | 1017 hPa | 2.54 mm | - | - | - |
| 1787817555 | 24.44° C | 89% | 1017 hPa | 0 mm | - | - | - |
| 1787816661 | 25.56° C | 88% | 1017 hPa | 0 mm | - | - | - |
| 1787815755 | 25.56° C | 85% | 1017.1 hPa | 0 mm | - | - | - |
| 1787814855 | 25.56° C | 85% | 1017.3 hPa | 0 mm | - | - | - |
* Rain latest hour (hover to see other rain measurements)
** Current wind speed in m/s (hover to see current wind gust speed)